Simultaneous Nadir Overpasses (SNOs) Predictions

Prediction of SNOs between GOES-16 and METOP-B Satellite Orbit:

Table of predicted SNOs for the next 14.0 days since TLE Epoch: 7/19/2019
Index Date Time (GOES-16) GOES-16 Lat,Lon METOP-B Lat,Lon Distance(km) Time Diff (sec)
1 07/20/2019 02:49:13 0.00, -75.19 -0.97, -79.42 483.21 80
2 07/21/2019 02:25:54 0.01, -75.19 0.19, -74.44 85.87 80
3 07/22/2019 14:47:25 -0.01, -75.20 0.86, -78.99 432.65 80
4 07/23/2019 14:24:06 -0.01, -75.21 -0.25, -74.00 136.91 80
5 07/25/2019 02:45:46 0.01, -75.21 -0.76, -78.60 386.74 80
6 07/26/2019 02:22:27 0.01, -75.21 0.35, -73.60 182.95 80
7 07/27/2019 14:43:59 -0.01, -75.23 0.64, -78.17 334.87 80
8 07/28/2019 14:20:40 -0.01, -75.24 -0.47, -73.17 234.94 80
9 07/30/2019 02:42:20 0.01, -75.24 -0.55, -77.77 288.35 80
10 07/31/2019 02:19:01 0.02, -75.25 0.56, -72.78 281.41 80
11 08/01/2019 14:40:33 -0.02, -75.27 0.42, -77.34 236.10 80
12 08/02/2019 14:17:13 -0.03, -75.28 -0.69, -72.35 334.08 80




NCC Satellite Simultaneous Nadir Overpasses (SNOs) Prediction Service
